STARLINK-1610 (46163 NORAD) Tracking and Keplerian Element Data
This shows tracking and keplerian element data for the satellite.
Feedback or suggestion? Click here.
Element | Value |
Catalog | 46163 |
Name | STARLINK-1610 |
Epoch Orbit | 2370 |
Epoch Day | 17.58045952 |
Epoch Year | 2021 |
RAAN | 63.2523 |
Inclination | 53.0563 |
Eccentricity | 0.0001041 |
Argument of Perigee | 62.9809 |
Mean Anonmoly | 297.1286 |
Mean Motion | 15.06388032 |
Decay Rate | 1.96E-05 |
L1 | 1 46163U 20057AY 21017.58045952 .00001960 00000-0 15045-3 0 9997 |
L2 | 2 46163 53.0563 63.2523 0001041 62.9809 297.1286 15.06388032 23708 |
Live tracking and technical data element details for STARLINK-1610 (NORAD 46163). STARLINK-1610 can be tracked NOW for your location showing map with azimuth and elevation plus other details from your city location.
Track the satellite on the map from your city or location and see movement details for azimuth, elevation, latitude, longitude, range, height, and movement on the map or in text.
IsCatalogInMostPopularTable: catalog: 46163, numindb: 35
Update: records affected: 1
GetName: 46163 STARLINK-1610
Hit Count: updated at: Tue, 19 Jan 2021 01:39:06 GMT